Flag for France Weather past 2 weeks in Rouen, France

Now
81 °F

Clear.


Feels Like: 81 °F
Forecast: 60 / 74 °F
Wind: 5 mph from South

Location: Rouen Airport

Current Time: Aug 1, 2014 at 7:01:16 PM

Latest Report: Aug 1, 2014 at 6:30 PM


Visibility: N/A

Pressure: 29.74 "Hg

Humidity: 48%

Dew point: 59 °F

Location of RouenLocation

Historic Weather in Rouen — Graph

°F

Rouen temperature yesterday

Maximum temperature yesterday: 75 °F (at 3:00 PM)
Minimum temperature yesterday: 50 °F (at 3:00 AM)
Average temperature yesterday: 63 °F

Past Weeks' High & Low Weather Summary

 TemperatureHumidityPressure
High91 °F (Jul 18, 4:00 PM)100% (Jul 20, 12:00 AM)30.15 "Hg (Jul 20, 12:00 AM)
Low50 °F (Jul 31, 3:00 AM)39% (Jul 25, 4:30 PM)29.74 "Hg (Jul 19, 6:00 PM)
Average68 °F76%29.97 "Hg
* Reported Jul 17 6:00 PM — Aug 1 6:00 PM, Rouen, Weather by CustomWeather, © 2014

Note: Actual official high and low records may vary slightly from our data, if they occured in-between our weather recording intervals... More about our weather records

Advertising

Rouen weather history for previous 24 hours

 ConditionsComfort  
Time TempWeatherWind HumidityBarometerVisibility
6:00 PM
Aug 1
81 °FClear.7 mph45%29.74 "HgN/A
5:30 PM81 °FClear.7 mph45%29.77 "HgN/A
5:00 PM79 °FClear.5 mph51%29.77 "HgN/A
4:30 PM79 °FClear.6 mph48%29.77 "HgN/A
4:00 PM79 °FClear.5 mph48%29.80 "HgN/A
3:30 PM79 °FClear.1 mph45%29.80 "HgN/A
3:00 PM75 °FPartly sunny.2 mph50%29.80 "HgN/A
2:30 PM75 °FPassing clouds.3 mph50%29.80 "HgN/A
2:00 PM75 °FClear.2 mph61%29.83 "HgN/A
1:30 PM73 °FClear.3 mph57%29.83 "HgN/A
1:00 PM75 °FClear.3 mphN/A29.83 "HgN/A
12:30 PM73 °FClear.3 mphN/A29.83 "HgN/A
12:00 PM72 °FClear.3 mph65%29.86 "HgN/A
11:30 AM70 °FClear.2 mph64%29.86 "HgN/A
11:00 AM68 °FClear.2 mph64%29.86 "HgN/A
10:30 AM68 °FClear.1 mph64%29.89 "HgN/A
10:00 AM66 °FClear.No wind68%29.89 "HgN/A
9:30 AM63 °FClear.No wind77%29.89 "HgN/A
9:00 AM64 °FClear.2 mph78%29.89 "HgN/A
8:30 AM61 °FClear.No wind88%29.89 "HgN/A
8:00 AM57 °FClear.No wind100%29.89 "HgN/A
7:30 AM55 °FClear.1 mph100%29.89 "Hg5 mi
7:00 AM52 °FClear.2 mph94%29.89 "Hg4 mi
6:30 AM52 °FFog.No wind94%29.89 "Hg2 mi
5:30 AM54 °FClear.No wind94%29.92 "Hg4 mi
5:00 AM54 °FClear.No wind94%29.92 "Hg4 mi
4:30 AM54 °FClear.1 mph94%29.92 "Hg4 mi
4:00 AM54 °FPassing clouds.No wind94%29.92 "Hg5 mi
3:30 AM54 °FClear.1 mph88%29.92 "Hg4 mi
3:00 AM54 °FClear.2 mph94%29.95 "HgN/A
2:30 AM57 °FClear.2 mph88%29.95 "HgN/A
2:00 AM57 °FClear.3 mph88%29.95 "HgN/A
1:30 AM59 °FClear.3 mph82%29.95 "HgN/A
1:00 AM57 °FClear.3 mph88%29.95 "HgN/A
12:30 AM59 °FClear.3 mph82%29.95 "HgN/A
12:00 AM59 °FClear.3 mph88%29.95 "HgN/A
11:30 PM
Jul 31
61 °FClear.5 mph83%29.95 "HgN/A
11:00 PM61 °FClear.5 mph83%29.95 "HgN/A
10:30 PM63 °FClear.6 mph83%29.95 "HgN/A
10:00 PM64 °FClear.7 mph78%29.95 "HgN/A
9:30 PM64 °FClear.6 mph78%29.95 "HgN/A
9:00 PM66 °FClear.6 mph78%29.95 "HgN/A
8:30 PM68 °FClear.7 mph73%29.95 "HgN/A
8:00 PM66 °FClear.9 mph73%29.95 "HgN/A
7:30 PM68 °FScattered clouds.10 mph73%29.95 "HgN/A
7:00 PM70 °FBroken clouds.10 mph69%29.95 "HgN/A
Weather by CustomWeather, © 2014

See weather overviewHow to use our weather pages